Flag for Turkey Weather past 2 weeks in Konya, Turkey

Now
43 °F

Clear.


Feels Like: 43 °F
Forecast: 37 / 65 °F
Wind: 2 mph from North

Location: Konya Airport

Current Time: Apr 27, 2015 at 1:35:31 AM

Latest Report: Apr 27, 2015 at 12:50 AM


Visibility: 10 mi

Pressure: 30.07 "Hg

Humidity: 87%

Dew point: 39 °F

Location of KonyaLocation

Historic Weather in Konya — Graph

°F

Konya temperature yesterday

Maximum temperature yesterday: 61 °F (at 12:50 PM)
Minimum temperature yesterday: 37 °F (at 5:50 AM)
Average temperature yesterday: 51 °F

Past Weeks' High & Low Weather Summary

 TemperatureHumidityPressure
High73 °F (Apr 19, 1:50 PM)100% (Apr 23, 6:50 PM)30.24 "Hg (Apr 23, 6:50 PM)
Low28 °F (Apr 14, 2:50 AM)14% (Apr 19, 1:50 PM)29.77 "Hg (Apr 20, 2:50 PM)
Average47 °F59%30.06 "Hg
* Reported Apr 11 11:50 PM — Apr 26 11:50 PM, Konya, Weather by CustomWeather, © 2015

Note: Actual official high and low records may vary slightly from our data, if they occured in-between our weather recording intervals... More about our weather records

Advertising

Konya weather history for previous 24 hours

 ConditionsComfort  
Time TempWeatherWind HumidityBarometerVisibility
11:50 PM
Sun, Apr 26
46 °FClear.1 mph82%30.07 "Hg10 mi
10:50 PM50 °FClear.5 mph71%30.07 "Hg10 mi
9:50 PM50 °FPassing clouds.5 mph71%30.07 "HgN/A
8:50 PM50 °FPassing clouds.7 mph82%30.07 "HgN/A
7:50 PM52 °FThunderstorms. Partly sunny.5 mph82%30.07 "HgN/A
6:50 PM54 °FScattered clouds.6 mph72%30.04 "HgN/A
5:50 PM54 °FScattered clouds.8 mph72%30.04 "HgN/A
4:50 PM57 °FBroken clouds.9 mph55%30.01 "HgN/A
3:50 PM59 °FSprinkles. Broken clouds.13 mph45%30.04 "HgN/A
2:50 PM61 °FSprinkles. Broken clouds.5 mph36%30.04 "HgN/A
1:50 PM59 °FBroken clouds.7 mph36%30.04 "HgN/A
12:50 PM61 °FBroken clouds.8 mph31%30.07 "HgN/A
11:50 AM59 °FBroken clouds.7 mph34%30.07 "HgN/A
10:50 AM55 °FBroken clouds.10 mph38%30.09 "HgN/A
9:50 AM55 °FBroken clouds.3 mph33%30.09 "HgN/A
8:50 AM50 °FBroken clouds.6 mph54%30.09 "HgN/A
7:50 AM46 °FBroken clouds.3 mph82%30.09 "HgN/A
6:50 AM41 °FPassing clouds.1 mph81%30.09 "HgN/A
5:50 AM37 °FClear.2 mph87%30.09 "Hg10 mi
4:50 AM41 °FPassing clouds.6 mph81%30.07 "HgN/A
3:50 AM41 °FClear.1 mph87%30.07 "Hg10 mi
2:50 AM43 °FClear.5 mph81%30.09 "Hg10 mi
1:50 AM46 °FPassing clouds.3 mph76%30.09 "HgN/A
Weather by CustomWeather, © 2015

See weather overviewHow to use our weather pages